Location: Bois de la Silve
(44.4667°N, 6.7833°E)
Time: 20:58:18
(UTC+00:00)

Cosmos 1743 - Pass Details

Date: 14 July 2020
Orbit: 511 x 526 km, 82.6° (Epoch: 14 August)

Event Time Altitude Azimuth Distance (km) Brightness Sun altitude
Exits shadow 03:02:19 12° 213° (SSW) 1,615 4.6 -9.2°
Maximum altitude 03:05:37 40° 283° (WNW) 766 3.3 -8.8°
Drops below altitude 10° 03:09:16 10° 354° (N) 1,756 5.9 -8.3°
Sets 03:11:31 0° 2° (N) 2,651 7.0 -8.0°
